星链-36958(STARLINK-36958)

导读 | 豆包AI

STARLINK-36958(NORAD编号68163)是SpaceX星链(Starlink)星座中的一颗低轨互联网通信卫星,属于星链大规模组网部署任务的一部分。星链项目旨在构建全球卫星宽带互联网,该卫星搭载相控阵天线与相关通信载荷,支持多用户同时接入通信。 2026年SpaceX为提升太空安全,计划将包括STARLINK-36958在内的4400颗星链卫星轨道高度从550公里降至480公里,降低故障后碰撞风险,减少太空碎片,缓解近地轨道拥挤问题,避免凯斯勒现象风险。

基本信息
目录编号:
68163
目录名称:
STARLINK-36958
国际标识:
2026-049X
轨道中心:
EARTH
卫星名称:
星链-36958
卫星全名:
星链-36958(STARLINK-36958)
卫星状态:
在轨 (已飞行73 天)
发射日期:
2026-03-13 UTC
国别 :
美国 (US)
星等 :
--
轨道信息
数据来源 国际轨道数据
星历时间: 2026-05-25T09:06:19+0800
7小时前
查看轨道信息
半长轴: 6843.687km
偏心率: 0.0000217
轨道倾角: 97.286°
近地点辐角 205.593°
升交点赤经 166.624°
平近点角 154.530°
近地点: 465.401km
远地点: 465.699km
周期: 93.906分钟
每日圈数: 15.334428
详细信息
固有亮度:
5
最大亮度:
2.5
卫星平台:
Starlink V1.0
覆盖范围:
全球
运营商:
太空探索技术公司
运营商所在国:
美国
制造商(研发单位):
太空探索技术公司
制造商所在国:
美国
使用方式:
暂无
卫星简介
Starlink 计划是 SpaceX 推出的全球卫星互联网项目,通过发射低轨道卫星,为全球尤其是偏远地区提供高速、低延迟的互联网服务。自 2019 年起,Starlink 已部署数千颗卫星,旨在缩小全球数字鸿沟,推动互联网普及。该项目还为军事、航空等行业提供通信支持,带来广泛经济效益。
2D轨道图
3D轨道图
轨道高度分析图
轨道倾角分析图
轨道综合分析图
查看轨道综合分析图